sat.trackr.live / text

‹ back to catalog

STARLINK-34609

NORAD 64768 · 2025-147P

PAYLOAD ACTIVE UNKNOWN

§ Identity

Operator
Country
US
Launch date
2025-07-08
Launch site
AFETR
Launch vehicle
Mass (kg)
RCS (m²)

Purposes: comms

External: N2YO · Heavens-Above · Gunter

§ Orbital elements

Epoch: 2026-09-20T13:25:40.807776Z

Period
93.85 min
Inclination
53.1591°
Eccentricity
0.0001230
Mean motion
15.34410708 rev/d
Perigee alt
461.8 km
Apogee alt
463.5 km
Semi-major
6,840.8 km
B*
7.8290e-4
RAAN
45.0764°
Arg perigee
115.6636°
Mean anomaly
244.4494°
Rev number
6,876

§ Raw data

STARLINK-346091 64768U 25147P   26263.55950009  .00026177  00000+0  78290-3 0  99932 64768  53.1591  45.0764 0001230 115.6636 244.4494 15.34410708 68768

JSON: /api/v1/satellites/64768 · /tle

For live sub-satellite position, see the globe view (requires WebGL).

§ Visibility from observer

Set your observer location to see the next 7 days of passes ≥ 10°. The values pass through the URL so the page stays shareable.

No JS? Fill the form by hand. The geolocation button needs JavaScript.